Weather Roundup
Issued by NWS Chicago, IL

Home | Current Version | Previous Version | Text Only | Print | Product List | Glossary On
Versions: 1 2 3 4 5 6 7 8 9 10 11 12 13 14 15 16 17 18 19 20 21 22 23 24 25 26 27 28 29 30 31 32 33 34 35 36 37 38 39 40 41 42 43 44 45 46 47 48 49 50
641
NZUS59 KLOT 091112
HRRLOT

CHICAGO AREA WEATHER ROUNDUP
NATIONAL WEATHER SERVICE CHICAGO/ROMEOVILLE IL
500 AM CST FRI DEC 09 2016

NOTE: "FAIR" INDICATES FEW OR NO CLOUDS BELOW 12,000 FEET WITH NO
SIGNIFICANT WEATHER AND/OR OBSTRUCTIONS TO VISIBILITY.

* THESE STATIONS ARE NOT UNDER NWS QUALITY CONTROL. THEY ALSO MAY NOT
  REPORT WEATHER SUCH AS PRECIPITATION OR FOG.

ILZ005-006-012>014-019>023-091200-
NORTHEAST ILLINOIS

CITY           SKY/WX    TMP DP  RH WIND       PRES   REMARKS
OHARE          CLOUDY    22  16  78 W9        30.45S WCI  12
MIDWAY         FLURRIES  23  15  71 W7        30.47R WCI  15
AURORA         CLOUDY    22  16  78 W15       30.48R WCI   9
LANSING*       CLOUDY    22  19  86 W9        30.47S WCI  12
JOLIET*        CLOUDY    24  18  80 W6        30.49S WCI  16
WAUKEGAN       CLOUDY    22  17  81 W6        30.43R WCI  14
DUPAGE AIRPORT CLOUDY    21  15  78 W9        30.46S WCI  11
WHEELING       CLOUDY    22  16  78 NW8       30.46S WCI  12
KANKAKEE*      FLURRIES  23  18  81 W9        30.50R WCI  13
MORRIS*        CLOUDY    22  17  81 W12       30.49R WCI  11
LEWIS AIRPORT* CLOUDY    22  19  91 NW12      30.48R WCI  10
NORTHERLY ISL    N/A     23  18  81 W13         N/A  WCI  11
$$

WIZ051-052-058>065-066-070>072-091200-
SOUTHEAST WISCONSIN

CITY           SKY/WX    TMP DP  RH WIND       PRES   REMARKS
MILWAUKEE      CLEAR     23  15  71 NW10      30.43R WCI  12
KENOSHA*       PTCLDY    20  16  84 W10       30.43S WCI   9
RACINE*        CLEAR     21  14  74 W7        30.45R WCI  12
BURLINGTON     CLOUDY    25  22  89 CALM      30.44R
WEST BEND      CLEAR     19  16  86 W9        30.41R WCI   9
$$

INZ001>003-010>013-019-020-091200-
NORTHWEST INDIANA

CITY           SKY/WX    TMP DP  RH WIND       PRES   REMARKS
GARY*          CLOUDY    23  18  80 W7        30.47R WCI  15
MICHIGAN CITY* NOT AVBL
RENSSELAER*    NOT AVBL
VALPARAISO     CLOUDY    23  16  74 MISG      30.45S
$$

LMZ740>746-091200-
SOUTHERN LAKE MICHIGAN

STATION/POSITION TIME  SKY/WX   TEMP WIND        PRES    VSBY
                                AIR  DIR/SP/G
                 (UTC)          (F)  (DEG/KT/KT) (MB)    (MI)
HARRISON CRIB    1040            24  290/ 17/ 19   N/A
BURNHAM HARBOR   1100            23  270/ 10/ 13   N/A
CALUMET HARBOR   1048            22  260/  6/ 12 1030.6S
BURNS HARBOR     1102            26  280/ 15/ 22 1031.5
MICHIGAN CITY    NOT AVBL
$$

ABBREVIATIONS USED IN REMARKS
   TC - TEMPERATURE IN CELSIUS
  WCI - WIND CHILL INDEX
   HX - HEAT INDEX
  VSB - VISIBILITY
$$




USA.gov is the U.S. government's official web portal to all federal, state and local government web resources and services.